Time,TemperatureF,DewpointF,PressureIn,WindDirection,WindDirectionDegrees,WindSpeedMPH,WindSpeedGustMPH,Humidity,HourlyPrecipIn,Conditions,Clouds,dailyrainin,SoftwareType,DateUTC
2013-07-18 00:02:00,78.0,74.0,30.13,West,270,0.0,2.0,89,0.00,,,0.00,,2013-07-18 05:02:00,
2013-07-18 00:11:00,78.0,74.0,30.13,West,270,0.0,1.0,89,0.00,,,0.00,,2013-07-18 05:11:00,
2013-07-18 00:22:00,78.0,74.0,30.13,West,270,0.0,1.0,89,0.00,,,0.00,,2013-07-18 05:22:00,
2013-07-18 00:32:00,77.0,74.0,30.12,West,270,0.0,0.0,90,0.00,,,0.00,,2013-07-18 05:32:00,
2013-07-18 00:42:00,77.0,74.0,30.12,West,270,0.0,0.0,90,0.00,,,0.00,,2013-07-18 05:42:00,
2013-07-18 00:52:00,77.0,74.0,30.12,West,270,0.0,0.0,90,0.00,,,0.00,,2013-07-18 05:52:00,
2013-07-18 01:01:00,77.0,74.0,30.12,West,270,0.0,1.0,91,0.00,,,0.00,,2013-07-18 06:01:00,
2013-07-18 01:12:00,76.0,73.0,30.13,West,270,0.0,0.0,91,0.00,,,0.00,,2013-07-18 06:12:00,
2013-07-18 01:22:00,76.0,73.0,30.13,West,270,0.0,0.0,91,0.00,,,0.00,,2013-07-18 06:22:00,
2013-07-18 01:32:00,76.0,74.0,30.12,West,270,0.0,1.0,92,0.00,,,0.00,,2013-07-18 06:32:00,
2013-07-18 01:43:00,76.0,74.0,30.12,West,270,0.0,2.0,93,0.00,,,0.00,,2013-07-18 06:43:00,
2013-07-18 01:52:00,76.0,74.0,30.12,West,270,0.0,2.0,93,0.00,,,0.00,,2013-07-18 06:52:00,
2013-07-18 02:01:00,76.0,74.0,30.12,West,270,0.0,1.0,92,0.00,,,0.00,,2013-07-18 07:01:00,
2013-07-18 02:12:00,76.0,74.0,30.12,West,270,0.0,2.0,93,0.00,,,0.00,,2013-07-18 07:12:00,
2013-07-18 02:22:00,76.0,74.0,30.12,West,270,0.0,2.0,93,0.00,,,0.00,,2013-07-18 07:22:00,
2013-07-18 02:32:00,76.0,74.0,30.11,West,270,0.0,2.0,92,0.00,,,0.00,,2013-07-18 07:32:00,
2013-07-18 02:42:00,76.0,74.0,30.12,West,270,0.0,2.0,92,0.00,,,0.00,,2013-07-18 07:42:00,
2013-07-18 02:52:00,76.0,74.0,30.12,West,270,0.0,2.0,92,0.00,,,0.00,,2013-07-18 07:52:00,
2013-07-18 03:01:00,76.0,74.0,30.12,West,270,0.0,1.0,92,0.00,,,0.00,,2013-07-18 08:01:00,
2013-07-18 03:11:00,76.0,74.0,30.11,West,270,0.0,2.0,92,0.00,,,0.00,,2013-07-18 08:11:00,
2013-07-18 03:21:00,76.0,74.0,30.11,West,270,0.0,2.0,92,0.00,,,0.00,,2013-07-18 08:21:00,
2013-07-18 03:32:00,76.0,73.0,30.11,West,270,0.0,0.0,91,0.00,,,0.00,,2013-07-18 08:32:00,
2013-07-18 03:51:00,76.0,74.0,30.10,West,270,0.0,2.0,92,0.00,,,0.00,,2013-07-18 08:51:00,
2013-07-18 04:01:00,76.0,74.0,30.10,West,270,1.0,2.0,92,0.00,,,0.00,,2013-07-18 09:01:00,
2013-07-18 04:21:00,76.0,73.0,30.10,West,270,0.0,2.0,91,0.00,,,0.00,,2013-07-18 09:21:00,
2013-07-18 04:32:00,75.0,73.0,30.10,West,270,0.0,1.0,92,0.00,,,0.00,,2013-07-18 09:32:00,
2013-07-18 04:41:00,75.0,73.0,30.09,West,270,0.0,1.0,92,0.00,,,0.00,,2013-07-18 09:41:00,
2013-07-18 04:51:00,75.0,73.0,30.09,West,270,0.0,1.0,92,0.00,,,0.00,,2013-07-18 09:51:00,
2013-07-18 05:01:00,74.0,72.0,30.09,West,270,0.0,0.0,93,0.00,,,0.00,,2013-07-18 10:01:00,
2013-07-18 05:11:00,74.0,72.0,30.09,West,270,0.0,0.0,94,0.00,,,0.00,,2013-07-18 10:11:00,
2013-07-18 05:22:00,74.0,72.0,30.09,West,270,0.0,0.0,94,0.00,,,0.00,,2013-07-18 10:22:00,
2013-07-18 05:32:00,74.0,72.0,30.09,West,270,0.0,2.0,94,0.00,,,0.00,,2013-07-18 10:32:00,
2013-07-18 05:43:00,74.0,72.0,30.09,West,270,0.0,1.0,94,0.00,,,0.00,,2013-07-18 10:43:00,
2013-07-18 05:52:00,74.0,72.0,30.09,West,270,0.0,1.0,94,0.00,,,0.00,,2013-07-18 10:52:00,
2013-07-18 06:01:00,74.0,72.0,30.09,West,270,0.0,2.0,95,0.00,,,0.00,,2013-07-18 11:01:00,
2013-07-18 06:11:00,74.0,72.0,30.09,West,270,1.0,2.0,95,0.00,,,0.00,,2013-07-18 11:11:00,
2013-07-18 06:22:00,74.0,72.0,30.09,West,270,1.0,2.0,95,0.00,,,0.00,,2013-07-18 11:22:00,
2013-07-18 06:32:00,75.0,73.0,30.09,West,270,1.0,3.0,94,0.00,,,0.00,,2013-07-18 11:32:00,
2013-07-18 06:43:00,76.0,74.0,30.09,West,269,1.0,4.0,93,0.00,,,0.00,,2013-07-18 11:43:00,
2013-07-18 06:52:00,76.0,74.0,30.09,West,269,1.0,4.0,93,0.00,,,0.00,,2013-07-18 11:52:00,
2013-07-18 07:02:00,76.0,74.0,30.09,West,269,1.0,3.0,92,0.00,,,0.00,,2013-07-18 12:02:00,
2013-07-18 07:11:00,77.0,74.0,30.09,West,269,0.0,2.0,92,0.00,,,0.00,,2013-07-18 12:11:00,
2013-07-18 07:22:00,77.0,74.0,30.09,West,269,0.0,2.0,92,0.00,,,0.00,,2013-07-18 12:22:00,
2013-07-18 07:32:00,78.0,75.0,30.09,West,267,0.0,3.0,91,0.00,,,0.00,,2013-07-18 12:32:00,
2013-07-18 07:42:00,79.0,76.0,30.09,West,265,1.0,3.0,90,0.00,,,0.00,,2013-07-18 12:42:00,
2013-07-18 07:52:00,79.0,76.0,30.09,West,265,1.0,3.0,90,0.00,,,0.00,,2013-07-18 12:52:00,
2013-07-18 08:01:00,80.0,76.0,30.09,West,265,1.0,3.0,89,0.00,,,0.00,,2013-07-18 13:01:00,
2013-07-18 08:11:00,80.0,76.0,30.09,SW,225,2.0,4.0,88,0.00,,,0.00,,2013-07-18 13:11:00,
2013-07-18 08:22:00,80.0,76.0,30.09,SW,225,2.0,4.0,88,0.00,,,0.00,,2013-07-18 13:22:00,
2013-07-18 08:32:00,81.0,76.0,30.09,SW,235,2.0,6.0,85,0.00,,,0.00,,2013-07-18 13:32:00,
2013-07-18 08:43:00,82.0,76.0,30.09,SW,219,3.0,6.0,82,0.00,,,0.00,,2013-07-18 13:43:00,
2013-07-18 08:53:00,82.0,76.0,30.09,SW,219,3.0,6.0,82,0.00,,,0.00,,2013-07-18 13:53:00,
2013-07-18 09:02:00,83.0,77.0,30.09,West,279,3.0,5.0,82,0.00,,,0.00,,2013-07-18 14:02:00,
2013-07-18 09:11:00,85.0,77.0,30.08,WSW,248,3.0,6.0,78,0.00,,,0.00,,2013-07-18 14:11:00,
2013-07-18 09:22:00,85.0,77.0,30.08,WSW,248,3.0,6.0,78,0.00,,,0.00,,2013-07-18 14:22:00,
2013-07-18 09:33:00,85.0,77.0,30.08,SW,223,3.0,6.0,77,0.00,,,0.00,,2013-07-18 14:33:00,
2013-07-18 09:43:00,86.0,78.0,30.08,WSW,240,3.0,6.0,77,0.00,,,0.00,,2013-07-18 14:43:00,
2013-07-18 09:52:00,86.0,78.0,30.08,WSW,240,3.0,6.0,77,0.00,,,0.00,,2013-07-18 14:52:00,
2013-07-18 10:01:00,86.0,78.0,30.08,WSW,257,3.0,6.0,76,0.00,,,0.00,,2013-07-18 15:01:00,
2013-07-18 10:11:00,87.0,78.0,30.07,SW,223,4.0,8.0,74,0.00,,,0.00,,2013-07-18 15:11:00,
2013-07-18 10:22:00,87.0,78.0,30.07,SW,223,4.0,8.0,74,0.00,,,0.00,,2013-07-18 15:22:00,
2013-07-18 10:32:00,87.0,78.0,30.07,West,272,4.0,7.0,74,0.00,,,0.00,,2013-07-18 15:32:00,
2013-07-18 10:43:00,88.0,77.0,30.07,WSW,257,3.0,8.0,70,0.00,,,0.00,,2013-07-18 15:43:00,
2013-07-18 10:53:00,88.0,77.0,30.07,WSW,257,3.0,8.0,70,0.00,,,0.00,,2013-07-18 15:53:00,
2013-07-18 11:01:00,89.0,77.0,30.07,SW,225,4.0,6.0,69,0.00,,,0.00,,2013-07-18 16:01:00,
2013-07-18 11:11:00,89.0,77.0,30.07,South,184,2.0,7.0,68,0.00,,,0.00,,2013-07-18 16:11:00,
2013-07-18 11:22:00,89.0,77.0,30.07,South,184,2.0,7.0,68,0.00,,,0.00,,2013-07-18 16:22:00,
2013-07-18 11:32:00,89.0,78.0,30.06,SW,222,3.0,8.0,71,0.00,,,0.00,,2013-07-18 16:32:00,
2013-07-18 11:42:00,90.0,78.0,30.06,SW,232,3.0,8.0,67,0.00,,,0.00,,2013-07-18 16:42:00,
2013-07-18 11:52:00,90.0,78.0,30.06,SW,232,3.0,8.0,67,0.00,,,0.00,,2013-07-18 16:52:00,
2013-07-18 12:02:00,89.0,77.0,30.06,West,267,3.0,6.0,67,0.00,,,0.00,,2013-07-18 17:02:00,
2013-07-18 12:11:00,90.0,78.0,30.06,SW,223,4.0,8.0,67,0.00,,,0.00,,2013-07-18 17:11:00,
2013-07-18 12:22:00,90.0,78.0,30.06,SW,223,4.0,8.0,67,0.00,,,0.00,,2013-07-18 17:22:00,
2013-07-18 12:33:00,89.0,76.0,30.06,WSW,256,4.0,10.0,66,0.00,,,0.00,,2013-07-18 17:33:00,
2013-07-18 12:43:00,89.0,76.0,30.06,WSW,256,4.0,10.0,66,0.00,,,0.00,,2013-07-18 17:43:00,
2013-07-18 12:52:00,91.0,78.0,30.05,SW,218,3.0,9.0,65,0.00,,,0.00,,2013-07-18 17:52:00,
2013-07-18 13:01:00,90.0,77.0,30.04,SSW,194,3.0,8.0,65,0.00,,,0.00,,2013-07-18 18:01:00,
2013-07-18 13:11:00,90.0,77.0,30.04,SSW,194,3.0,8.0,65,0.00,,,0.00,,2013-07-18 18:11:00,
2013-07-18 13:22:00,90.0,77.0,30.04,SSW,194,3.0,8.0,65,0.00,,,0.00,,2013-07-18 18:22:00,
2013-07-18 13:43:00,91.0,77.0,30.03,SW,232,5.0,10.0,64,0.00,,,0.00,,2013-07-18 18:43:00,
2013-07-18 13:52:00,90.0,76.0,30.03,West,271,3.0,7.0,63,0.00,,,0.00,,2013-07-18 18:52:00,
2013-07-18 14:02:00,90.0,78.0,30.02,SW,217,4.0,8.0,68,0.00,,,0.00,,2013-07-18 19:02:00,
2013-07-18 14:11:00,90.0,78.0,30.02,SW,217,4.0,8.0,68,0.00,,,0.00,,2013-07-18 19:11:00,
2013-07-18 14:22:00,89.0,77.0,30.02,SW,218,3.0,6.0,67,0.00,,,0.00,,2013-07-18 19:22:00,
2013-07-18 14:32:00,89.0,78.0,30.01,SW,232,4.0,8.0,70,0.00,,,0.00,,2013-07-18 19:32:00,
2013-07-18 14:43:00,89.0,78.0,30.01,SW,232,4.0,8.0,70,0.00,,,0.00,,2013-07-18 19:43:00,
2013-07-18 14:53:00,91.0,79.0,30.01,South,177,4.0,11.0,69,0.00,,,0.00,,2013-07-18 19:53:00,
2013-07-18 15:02:00,89.0,77.0,30.00,SSE,150,4.0,9.0,68,0.00,,,0.00,,2013-07-18 20:02:00,
2013-07-18 15:11:00,89.0,77.0,30.00,SSE,150,4.0,9.0,68,0.00,,,0.00,,2013-07-18 20:11:00,
2013-07-18 15:22:00,89.0,77.0,29.99,SSE,154,2.0,8.0,68,0.00,,,0.00,,2013-07-18 20:22:00,
2013-07-18 15:32:00,90.0,78.0,29.98,SSW,202,3.0,6.0,68,0.00,,,0.00,,2013-07-18 20:32:00,
2013-07-18 15:43:00,90.0,78.0,29.98,SSW,202,3.0,6.0,68,0.00,,,0.00,,2013-07-18 20:43:00,
2013-07-18 15:52:00,90.0,79.0,29.97,SSW,200,3.0,6.0,70,0.00,,,0.00,,2013-07-18 20:52:00,
2013-07-18 16:01:00,91.0,80.0,29.97,SSW,201,3.0,6.0,70,0.00,,,0.00,,2013-07-18 21:01:00,
2013-07-18 16:11:00,91.0,80.0,29.97,SSW,201,3.0,6.0,70,0.00,,,0.00,,2013-07-18 21:11:00,
2013-07-18 16:22:00,91.0,77.0,29.96,SW,226,5.0,10.0,63,0.00,,,0.00,,2013-07-18 21:22:00,
2013-07-18 16:32:00,90.0,76.0,29.96,WSW,241,3.0,10.0,63,0.00,,,0.00,,2013-07-18 21:32:00,
2013-07-18 16:43:00,90.0,76.0,29.96,WSW,241,3.0,10.0,63,0.00,,,0.00,,2013-07-18 21:43:00,
2013-07-18 16:52:00,91.0,75.0,29.96,SW,236,5.0,12.0,60,0.00,,,0.00,,2013-07-18 21:52:00,
2013-07-18 17:01:00,91.0,75.0,29.95,SW,228,5.0,10.0,59,0.00,,,0.00,,2013-07-18 22:01:00,
2013-07-18 17:11:00,91.0,75.0,29.95,SW,228,5.0,10.0,59,0.00,,,0.00,,2013-07-18 22:11:00,
2013-07-18 17:22:00,91.0,76.0,29.94,SSW,205,3.0,7.0,62,0.00,,,0.00,,2013-07-18 22:22:00,
2013-07-18 17:32:00,91.0,78.0,29.93,SW,232,4.0,7.0,65,0.00,,,0.00,,2013-07-18 22:32:00,
2013-07-18 17:43:00,91.0,78.0,29.93,SW,232,4.0,7.0,65,0.00,,,0.00,,2013-07-18 22:43:00,
2013-07-18 17:53:00,91.0,76.0,29.93,WSW,240,5.0,10.0,61,0.00,,,0.00,,2013-07-18 22:53:00,
2013-07-18 18:02:00,91.0,77.0,29.93,WSW,248,4.0,8.0,63,0.00,,,0.00,,2013-07-18 23:02:00,
2013-07-18 18:11:00,91.0,77.0,29.93,WSW,248,4.0,8.0,63,0.00,,,0.00,,2013-07-18 23:11:00,
2013-07-18 18:22:00,91.0,76.0,29.93,WSW,243,2.0,8.0,62,0.00,,,0.00,,2013-07-18 23:22:00,
2013-07-18 18:32:00,91.0,78.0,29.93,SSW,192,3.0,7.0,66,0.00,,,0.00,,2013-07-18 23:32:00,
2013-07-18 18:42:00,91.0,78.0,29.93,SSW,192,3.0,7.0,66,0.00,,,0.00,,2013-07-18 23:42:00,
2013-07-18 18:52:00,90.0,77.0,29.93,SSW,192,3.0,7.0,66,0.00,,,0.00,,2013-07-18 23:52:00,
2013-07-18 19:01:00,90.0,78.0,29.93,SSW,194,3.0,5.0,68,0.00,,,0.00,,2013-07-19 00:01:00,
2013-07-18 19:11:00,90.0,78.0,29.93,SSW,194,3.0,5.0,68,0.00,,,0.00,,2013-07-19 00:11:00,
2013-07-18 19:22:00,89.0,78.0,29.92,SSW,198,2.0,5.0,70,0.00,,,0.00,,2013-07-19 00:22:00,
2013-07-18 19:32:00,88.0,77.0,29.92,SW,225,2.0,5.0,71,0.00,,,0.00,,2013-07-19 00:32:00,
2013-07-18 19:43:00,88.0,77.0,29.92,SW,225,2.0,5.0,71,0.00,,,0.00,,2013-07-19 00:43:00,
2013-07-18 19:52:00,87.0,77.0,29.92,SW,229,2.0,7.0,73,0.00,,,0.00,,2013-07-19 00:52:00,
2013-07-18 20:01:00,86.0,77.0,29.92,SW,214,2.0,4.0,74,0.00,,,0.00,,2013-07-19 01:01:00,
2013-07-18 20:11:00,86.0,77.0,29.92,SW,214,2.0,4.0,74,0.00,,,0.00,,2013-07-19 01:11:00,
2013-07-18 20:22:00,85.0,76.0,29.92,WSW,242,2.0,5.0,75,0.00,,,0.00,,2013-07-19 01:22:00,
2013-07-18 20:32:00,85.0,77.0,29.92,SSW,207,2.0,5.0,77,0.00,,,0.00,,2013-07-19 01:32:00,
2013-07-18 20:42:00,85.0,77.0,29.92,SSW,207,2.0,5.0,77,0.00,,,0.00,,2013-07-19 01:42:00,
2013-07-18 20:52:00,84.0,76.0,29.92,SW,227,2.0,6.0,78,0.00,,,0.00,,2013-07-19 01:52:00,
2013-07-18 21:01:00,83.0,76.0,29.91,SSW,198,3.0,7.0,79,0.00,,,0.00,,2013-07-19 02:01:00,
2013-07-18 21:11:00,83.0,76.0,29.91,SSW,198,3.0,7.0,79,0.00,,,0.00,,2013-07-19 02:11:00,
2013-07-18 21:22:00,83.0,76.0,29.92,SW,227,2.0,5.0,80,0.00,,,0.00,,2013-07-19 02:22:00,
2013-07-18 21:32:00,82.0,76.0,29.92,SSW,196,3.0,8.0,81,0.00,,,0.00,,2013-07-19 02:32:00,
2013-07-18 21:42:00,82.0,76.0,29.92,SSW,196,3.0,8.0,81,0.00,,,0.00,,2013-07-19 02:42:00,
2013-07-18 21:52:00,82.0,76.0,29.92,SSW,199,2.0,7.0,82,0.00,,,0.00,,2013-07-19 02:52:00,
2013-07-18 22:01:00,81.0,76.0,29.92,SSW,201,3.0,7.0,84,0.00,,,0.00,,2013-07-19 03:01:00,
2013-07-18 22:11:00,81.0,76.0,29.92,SSW,201,3.0,7.0,84,0.00,,,0.00,,2013-07-19 03:11:00,
2013-07-18 22:22:00,81.0,76.0,29.92,SSW,199,3.0,8.0,85,0.00,,,0.00,,2013-07-19 03:22:00,
2013-07-18 22:32:00,81.0,76.0,29.92,SSW,212,2.0,7.0,84,0.00,,,0.00,,2013-07-19 03:32:00,
2013-07-18 22:43:00,81.0,76.0,29.92,SSW,212,2.0,7.0,84,0.00,,,0.00,,2013-07-19 03:43:00,
2013-07-18 22:52:00,81.0,76.0,29.92,South,188,3.0,7.0,84,0.00,,,0.00,,2013-07-19 03:52:00,
2013-07-18 23:02:00,80.0,75.0,29.92,SW,217,2.0,6.0,84,0.00,,,0.00,,2013-07-19 04:02:00,
2013-07-18 23:12:00,80.0,75.0,29.92,SW,217,2.0,6.0,84,0.00,,,0.00,,2013-07-19 04:12:00,
2013-07-18 23:22:00,80.0,75.0,29.92,SSW,200,2.0,5.0,84,0.00,,,0.00,,2013-07-19 04:22:00,
2013-07-18 23:44:00,80.0,75.0,29.91,SSW,203,3.0,6.0,84,0.00,,,0.00,,2013-07-19 04:44:00,
2013-07-18 23:52:00,79.0,74.0,29.91,SSW,193,3.0,7.0,86,0.00,,,0.00,,2013-07-19 04:52:00,